Cloud_Cover
32 12 8 0 0 0 0 8 8 8 8 8 8 8 8 0 8 12 20 24 12 0 0 0 0 0 0 0 0 0 0 0 0 0 0 0 8 12 20 20 24 24 24 24 20 20 20 20 20 12 12 12 8 8 8 8 8 8 8 8 8 0 0 0 0 0 0 0 0 0 0 8 8 8 8 8 12 12 12 20 24 32 36 48 48 44 64 56 44 32 32 48 44 32 32 76 92 92 92 68 56 36 8
24 8 0 0 0 0 0 0 0 0 0 0 0 8 8 8 8 8 12 32 32 20 0 0 0 0 0 0 0 0 0 0 0 0 0 0 8 20 24 24 24 24 24 24 20 20 20 20 20 12 12 12 12 12 8 12 12 12 8 8 8 8 8 8 8 8 8 8 8 8 8 8 8 8 8 12 20 20 24 32 32 32 36 36 32 32 44 44 32 24 36 32 32 36 48 64 80 92 92 48 32 20 8
20 0 0 0 0 0 0 0 0 0 0 0 0 0 0 0 8 24 80 56 32 12 0 0 0 0 0 0 0 8 8 8 8 8 0 0 8 12 24 24 24 24 24 24 20 20 20 20 20 12 20 12 12 12 12 12 12 12 12 12 12 12 12 12 12 12 12 12 12 12 8 12 12 12 20 24 24 24 32 36 36 36 32 32 24 24 24 32 24 20 24 12 12 24 48 64 68 76 92 56 24 8 8
20 0 0 0 0 0 0 0 0 0 0 0 8 8 8 8 24 32 12 20 24 24 8 0 0 0 0 0 8 8 8 8 8 8 0 0 0 8 8 8 12 20 20 20 12 20 20 20 20 20 20 20 20 20 20 20 20 20 20 20 20 20 20 12 12 12 12 12 12 12 12 12 20 20 20 24 32 32 32 36 36 32 32 24 20 20 20 20 12 12 12 12 12 20 44 44 48 56 80 48 20 8 12
24 8 44 8 0 0 0 0 0 12 48 44 24 8 8 8 12 24 12 32 32 24 8 8 8 8 8 8 8 8 8 8 8 8 8 8 8 8 8 8 8 8 8 12 20 20 20 20 20 20 24 24 24 20 20 20 20 20 20 20 20 20 20 20 20 12 20 12 12 12 12 20 20 24 24 32 36 36 36 36 32 24 24 20 20 20 20 12 12 12 8 8 20 24 36 36 32 32 36 20 12 12 20
24 20 92 92 44 0 0 0 0 8 44 20 12 12 12 20 44 48 12 36 32 12 8 8 8 0 8 8 8 8 8 8 8 8 8 8 8 8 12 12 12 12 12 12 12 20 24 24 24 24 24 24 24 24 24 24 24 20 20 20 20 20 20 20 20 20 12 12 12 12 12 24 32 32 32 36 36 36 36 32 24 20 12 12 12 12 12 12 8 8 8 12 20 24 36 24 20 24 32 12 20 24 24
12 20 92 92 48 0 0 0 0 0 12 12 32 48 44 32 64 92 92 92 64 24 8 8 8 8 8 8 8 8 8 8 8 8 8 8 8 12 12 20 20 20 20 20 20 20 20 20 24 24 24 24 24 24 24 24 44 56 44 24 20 20 32 24 20 20 20 20 12 12 20 24 32 32 32 36 36 36 36 24 12 12 12 12 12 12 12 12 12 20 20 20 20 24 32 20 12 12 12 12 20 32 32
8 32 92 88 44 8 0 32 20 0 8 8 32 68 92 48 44 44 20 56 44 20 12 8 8 8 8 8 8 8 8 8 8 8 8 8 8 12 12 20 20 20 20 20 12 12 20 20 20 24 20 24 24 24 24 20 24 32 48 32 20 20 32 24 20 12 12 12 12 20 32 36 36 32 32 36 36 36 32 20 12 12 12 12 12 12 12 20 20 24 20 20 20 20 24 20 20 12 12 24 32 32 36
12 36 92 76 36 12 12 24 20 12 12 8 24 48 68 48 44 48 56 44 36 32 12 12 12 8 12 12 12 12 20 12 12 8 8 8 12 12 12 20 20 20 20 20 20 20 20 20 20 20 20 20 20 20 20 20 24 32 20 20 20 20 32 20 12 12 8 12 12 12 20 24 32 36 44 36 32 32 24 20 20 20 12 20 20 20 24 64 88 80 24 12 12 12 12 20 20 24 32 44 44 44 36
20 32 64 56 36 20 24 20 20 20 12 12 24 36 32 24 48 76 68 36 32 32 12 12 12 12 12 20 20 12 20 12 12 8 12 12 12 12 20 20 20 20 20 24 24 24 20 20 20 20 20 20 20 12 12 20 20 20 20 20 12 12 8 8 8 8 8 8 8 8 8 20 24 32 36 36 36 36 24 24 20 20 20 20 24 32 36 48 76 92 88 24 8 8 8 20 24 32 36 56 56 48 32
12 12 20 32 24 24 44 32 20 20 20 24 36 36 32 80 68 48 56 36 24 24 20 20 20 20 20 24 20 12 20 12 8 12 12 12 20 20 24 24 24 20 24 24 24 24 20 20 20 20 12 24 24 20 20 12 12 12 12 12 8 8 8 8 8 8 8 8 8 8 8 8 12 24 44 44 32 24 32 20 12 12 12 20 24 24 44 56 64 64 44 20 8 8 12 24 44 48 48 64 56 44 32
12 8 12 12 12 20 44 56 44 24 36 36 32 44 92 92 68 36 32 32 24 24 24 24 24 24 20 20 12 12 8 8 8 12 8 20 20 20 24 32 24 20 20 20 20 20 20 12 20 24 24 24 20 20 8 8 8 8 8 8 8 8 8 8 12 12 12 8 8 8 8 8 8 12 24 32 24 20 20 8 8 8 12 20 32 44 48 56 48 44 32 24 20 20 20 44 64 68 68 68 56 32 20
0 0 0 0 8 12 24 36 24 12 32 36 32 36 92 92 68 44 36 32 24 20 20 24 24 24 12 12 8 8 0 0 0 8 0 12 20 20 20 24 24 20 20 20 20 20 20 20 20 20 20 20 20 12 0 8 12 12 12 8 8 8 12 12 12 8 8 8 8 12 12 12 12 12 20 20 20 20 20 8 8 12 12 24 44 48 56 24 20 12 12 36 36 36 36 48 64 68 76 64 44 24 8
0 0 0 0 0 0 8 8 8 8 12 20 24 44 92 68 48 36 36 24 20 20 12 20 24 24 12 8 8 8 0 0 0 0 0 8 12 20 20 20 20 20 20 20 20 20 20 20 12 12 12 12 12 8 8 12 20 20 12 12 12 12 32 24 20 12 12 12 12 20 24 24 32 24 24 20 12 8 8 12 12 20 24 36 44 44 36 24 20 12 20 36 48 48 56 56 64 68 76 36 20 12 0
0 0 0 0 0 8 24 8 8 12 20 32 44 68 92 64 36 24 36 32 32 24 20 12 20 24 12 12 8 8 8 0 0 0 0 8 12 20 20 12 20 20 24 20 20 20 20 12 12 12 12 12 12 12 12 12 12 12 12 32 24 12 32 24 20 20 20 12 20 20 20 20 24 24 24 20 12 12 12 24 32 32 32 32 24 24 24 32 36 36 32 56 64 64 56 64 64 64 48 12 8 8 0
8 0 0 0 8 20 64 24 20 20 24 56 76 88 80 68 44 32 36 36 36 32 20 12 20 24 12 12 12 8 8 0 0 8 8 12 12 12 12 12 20 24 24 24 20 20 12 12 12 12 20 12 12 12 20 20 20 12 12 56 44 12 20 20 20 20 20 12 12 12 8 8 12 12 8 12 20 20 20 24 32 32 36 24 20 20 32 32 44 56 56 68 68 68 64 56 48 36 20 0 0 0 0
20 12 20 20 20 36 76 48 32 32 36 48 76 80 48 32 24 32 36 36 36 32 20 20 20 24 24 20 12 8 8 8 8 12 20 20 20 20 20 20 24 32 24 24 20 20 12 12 12 20 20 20 20 20 20 20 20 20 20 24 24 32 44 32 24 20 12 8 8 0 0 0 0 8 8 8 12 12 20 24 24 24 24 20 12 20 24 32 48 64 64 68 68 68 56 44 32 20 12 0 0 0 0
12 20 20 24 32 36 56 64 44 32 36 32 48 64 36 32 32 32 36 44 44 44 24 24 32 32 32 24 20 12 12 12 12 20 20 20 20 20 24 24 32 36 32 32 24 20 20 20 20 20 20 24 24 24 24 24 24 24 24 24 24 36 76 56 32 12 12 8 0 0 0 0 0 8 12 12 12 12 12 20 20 24 20 12 12 12 20 36 48 64 68 68 64 56 48 36 24 12 0 0 0 0 0
0 8 8 20 24 24 32 44 36 20 12 20 32 56 64 44 36 36 36 36 36 32 24 24 32 36 36 24 20 20 12 20 20 20 20 20 20 24 24 36 44 36 36 36 32 24 20 24 24 24 24 32 32 32 32 32 32 24 24 24 24 32 56 76 44 20 32 12 8 8 12 12 12 20 24 20 20 20 20 20 20 20 20 12 12 12 20 44 56 64 68 68 64 44 36 32 20 12 8 8 0 0 0
0 0 0 12 12 12 12 12 12 8 0 0 12 44 92 76 48 32 24 24 32 32 32 20 24 36 36 24 24 20 20 20 20 20 24 24 24 32 36 44 44 44 44 36 36 32 32 36 36 36 36 36 36 36 36 36 32 32 32 32 32 24 20 64 64 48 48 32 20 20 32 32 32 36 44 32 24 24 24 24 20 20 20 12 20 20 24 48 64 68 76 64 48 36 32 24 12 8 8 8 8 0 0
12 8 0 8 12 12 12 0 0 12 48 12 8 20 36 36 24 12 20 32 44 36 12 12 24 36 32 24 24 24 20 20 24 24 24 24 32 36 44 44 44 44 44 44 44 44 44 48 48 48 44 44 44 44 44 44 36 36 36 44 44 36 36 48 64 76 76 68 64 56 48 44 36 48 80 56 36 32 32 24 24 20 20 20 12 20 24 56 68 68 56 44 36 36 36 20 12 8 8 8 8 8 0
20 32 0 0 8 8 0 0 0 12 44 48 24 0 0 0 0 0 8 20 24 12 0 0 20 36 32 24 24 24 24 24 24 24 24 24 32 32 36 32 36 44 44 44 48 56 64 64 56 56 56 48 56 56 56 56 48 48 56 56 56 56 48 48 64 76 92 92 80 76 76 56 44 48 68 56 44 36 32 32 32 24 24 24 20 20 36 64 68 56 44 36 36 32 24 20 12 12 8 8 8 8 8
12 12 0 0 0 0 0 0 0 0 8 20 12 0 0 0 0 0 0 0 0 0 0 0 20 36 32 32 32 32 24 32 32 32 32 32 32 32 36 32 36 44 44 48 56 64 68 68 68 64 64 64 64 68 68 68 64 64 68 64 64 64 56 64 64 68 80 92 92 88 76 76 64 48 48 48 44 44 36 36 36 36 32 32 36 44 56 64 56 44 36 36 36 36 32 32 20 8 8 8 8 8 8
20 12 0 0 0 0 0 0 0 0 0 0 0 0 0 0 0 0 0 0 0 0 0 0 20 44 36 36 32 32 32 32 32 32 32 32 32 32 32 32 36 48 56 64 68 76 76 76 76 76 76 68 76 76 76 76 76 76 76 76 68 68 68 68 68 68 76 80 88 88 92 80 68 64 56 56 48 48 44 44 44 36 36 36 48 64 76 48 36 36 44 36 36 36 36 32 24 12 8 8 8 0 0
44 32 8 0 0 0 8 8 8 0 8 0 0 0 0 0 0 0 0 0 0 0 0 0 0 20 36 36 32 32 24 24 24 24 24 24 24 24 24 24 36 56 68 76 80 80 80 80 80 80 76 76 76 80 76 76 76 76 76 76 76 76 76 76 76 68 68 68 68 76 92 88 76 68 68 56 56 56 56 48 44 32 24 48 64 76 76 48 36 36 36 48 48 44 44 32 20 12 8 8 0 0 0
48 44 12 0 12 20 24 24 20 12 8 0 0 0 0 0 0 0 0 0 0 0 0 0 0 8 24 20 20 20 12 20 20 20 24 24 24 24 24 32 44 56 76 80 80 80 88 80 80 80 80 80 80 80 80 80 80 76 76 76 76 76 76 76 68 64 56 64 68 76 80 88 80 68 64 56 56 56 56 56 56 56 48 68 76 68 64 48 44 36 32 56 56 48 44 32 20 12 8 8 8 0 0
48 44 20 32 24 20 20 20 20 12 8 8 0 0 8 0 0 0 0 0 0 0 0 0 0 8 24 20 12 12 12 12 12 20 20 20 20 24 24 24 44 64 76 80 80 76 80 80 80 80 80 80 80 80 80 80 80 80 80 76 76 76 76 68 68 68 68 76 76 76 68 76 80 80 76 68 64 56 56 68 68 68 80 76 76 64 48 44 44 44 36 48 56 44 36 32 32 24 12 20 12 8 0
36 36 32 48 44 24 12 20 12 0 0 0 0 8 8 8 8 0 0 0 0 0 0 0 0 12 20 20 20 24 12 12 12 12 12 20 20 24 24 32 44 64 64 68 68 64 56 64 68 68 76 64 68 76 76 76 80 80 80 80 76 76 76 68 68 76 76 80 80 76 68 64 64 64 56 64 64 56 56 64 68 76 80 68 56 48 48 44 44 48 44 48 44 36 36 36 36 32 24 20 12 12 8
48 48 24 44 36 24 8 24 24 12 0 0 0 0 0 8 0 0 0 0 0 0 0 0 0 12 12 20 24 24 24 20 12 12 12 12 12 20 32 32 36 44 44 48 44 36 36 36 44 48 44 56 64 76 76 80 80 80 80 76 68 64 64 68 76 80 80 76 76 76 68 64 56 56 56 64 64 64 56 64 76 88 88 68 56 48 44 56 56 56 56 56 48 44 44 56 48 36 32 24 20 12 12
48 36 32 20 8 8 8 12 12 12 0 0 0 0 0 8 8 0 8 0 8 8 8 8 12 12 20 24 24 24 32 20 20 12 12 12 20 20 24 24 24 32 32 32 32 24 24 24 32 36 48 48 56 64 56 68 76 68 48 48 48 48 56 48 64 76 76 76 68 64 64 56 56 56 64 64 68 68 64 76 80 80 76 76 64 48 56 64 68 68 56 56 68 76 68 48 44 36 24 24 20 12 12
64 36 8 20 20 8 0 8 0 0 0 0 0 0 0 8 20 24 24 24 24 20 20 20 12 20 32 36 36 36 36 24 20 20 20 20 20 24 24 24 24 24 24 24 24 24 24 32 32 32 36 36 44 44 48 48 36 24 24 24 36 48 56 56 48 56 64 64 64 56 56 56 56 56 64 68 68 76 76 76 80 88 88 92 80 68 56 56 56 64 68 88 92 92 92 64 48 48 44 32 24 20 12
44 32 8 20 24 20 20 8 0 0 0 0 0 8 20 24 24 32 32 24 24 24 20 20 20 24 32 32 36 36 44 44 32 24 24 24 24 32 32 32 32 32 24 24 32 32 32 32 32 32 32 36 36 36 36 32 32 32 36 36 36 44 48 48 48 56 68 64 64 64 64 64 56 56 48 64 68 68 80 64 56 48 44 64 68 68 64 56 68 76 76 88 92 88 76 32 24 36 44 36 24 12 8
48 44 36 32 36 36 36 24 24 20 8 24 32 36 32 32 32 32 36 36 36 32 24 24 24 24 32 36 44 44 48 48 36 32 32 32 36 36 36 36 36 36 36 44 44 44 36 44 36 36 36 36 36 36 36 36 36 44 48 48 48 56 48 64 64 64 76 76 76 76 68 64 64 64 56 56 76 88 68 64 56 56 68 68 64 68 64 80 88 92 92 76 68 64 36 20 20 32 36 24 20 12 8
80 64 68 48 44 44 48 36 36 36 36 36 36 36 32 24 24 32 56 56 56 48 44 44 44 44 44 48 56 56 48 48 48 44 36 44 44 44 44 44 44 44 44 56 56 56 56 48 48 48 56 56 56 48 48 48 56 64 64 64 68 68 80 80 76 76 80 80 80 76 68 68 80 92 92 92 88 76 68 64 64 68 76 76 76 76 80 88 92 88 80 56 44 44 48 24 20 24 24 24 20 12 12
92 92 88 64 48 44 44 36 32 36 36 32 24 24 24 20 24 32 44 64 68 68 68 68 64 64 68 68 68 68 56 64 64 56 48 56 64 56 56 56 56 56 56 64 68 64 64 64 56 64 68 68 68 68 68 68 68 76 76 80 80 80 88 88 88 80 76 80 88 92 92 92 92 92 92 92 88 80 68 68 76 80 88 80 80 76 80 88 76 68 64 44 36 32 36 32 20 20 32 24 20 12 8
92 92 92 92 76 64 48 32 24 24 20 12 8 8 12 20 24 24 32 56 76 76 76 76 68 68 68 64 68 68 68 68 68 68 68 68 68 68 68 64 64 64 68 68 68 68 68 68 68 68 76 76 76 76 76 76 80 80 88 88 80 88 88 88 88 88 88 88 92 92 92 92 92 92 88 88 80 80 76 88 88 92 92 88 80 76 80 64 56 48 44 32 32 32 36 32 32 32 32 24 20 12 8
92 92 92 92 92 80 76 56 32 12 12 8 12 24 36 24 20 20 36 48 64 68 68 68 68 64 56 48 48 56 56 64 68 76 76 80 80 76 68 68 68 68 68 76 80 76 76 76 76 80 80 80 80 88 80 80 88 88 88 88 88 88 88 88 88 88 88 88 88 88 92 92 88 76 64 56 56 64 88 88 88 88 92 88 68 56 64 64 56 48 36 32 24 24 32 36 36 36 36 36 32 20 12
92 92 92 92 92 88 92 80 44 12 12 8 24 48 36 24 24 32 44 48 48 48 56 64 56 44 48 48 44 44 44 56 68 76 80 80 80 76 76 76 76 76 80 80 80 88 80 80 80 88 88 88 88 88 88 88 88 88 88 88 88 88 88 88 88 92 92 88 80 80 88 88 76 64 64 64 64 68 88 88 80 80 88 68 56 56 64 56 44 36 32 32 36 44 36 48 44 44 44 48 44 36 24
92 92 92 92 80 76 80 88 56 24 24 20 32 36 24 24 32 36 48 56 56 48 48 56 56 48 48 44 44 44 32 44 64 80 88 80 76 68 68 68 76 80 80 88 88 88 88 88 88 88 92 92 92 92 92 88 80 80 80 80 88 88 88 88 92 92 92 88 76 68 68 68 68 68 76 76 76 80 68 76 76 76 76 76 76 68 64 48 36 32 24 36 44 56 64 64 48 36 48 48 48 44 24
92 92 92 92 76 56 56 88 68 44 36 44 44 36 24 24 32 36 44 44 44 44 44 44 44 48 56 56 56 56 44 48 68 80 80 76 68 64 64 68 76 80 88 88 88 88 88 88 80 76 88 88 92 92 88 80 76 68 64 76 80 80 88 92 92 92 92 88 76 64 64 56 56 56 56 56 64 56 44 48 64 76 68 76 68 64 56 48 36 32 32 36 44 56 64 64 44 36 48 32 20 20 24
92 92 92 92 76 56 68 88 80 64 56 56 48 36 36 32 20 20 20 20 12 20 24 20 32 48 80 80 80 76 68 76 80 80 68 64 56 56 64 64 68 76 80 76 76 68 64 56 64 76 88 88 88 88 88 80 68 64 56 76 80 88 92 92 92 92 88 88 76 68 64 56 48 48 48 44 44 36 36 36 56 64 44 44 44 36 36 36 36 32 36 32 32 36 48 36 24 24 32 20 20 20 20
92 92 92 92 92 88 92 92 92 92 80 76 64 48 48 36 24 12 0 0 0 0 0 8 36 76 80 76 76 76 80 80 80 68 64 56 56 48 48 56 64 68 64 64 56 48 44 48 68 80 88 88 88 88 88 76 68 64 64 80 88 88 88 88 88 88 88 76 68 56 48 48 44 36 44 44 36 32 32 36 36 32 20 24 24 24 20 24 24 24 24 20 20 20 24 20 12 20 24 20 20 20 32
92 92 92 88 92 92 92 92 92 92 92 92 88 76 56 36 36 36 20 8 0 0 0 44 76 80 68 56 56 56 64 68 68 64 48 56 56 48 48 56 56 56 56 56 56 56 56 76 80 80 80 88 88 80 80 68 56 56 56 56 64 64 68 76 76 76 68 48 36 32 24 32 32 32 32 32 20 12 12 12 20 12 8 8 12 12 8 12 12 12 20 12 12 12 12 8 8 8 12 20 24 32 32
88 92 92 68 68 88 92 92 92 92 92 92 92 88 64 56 56 56 44 24 12 12 24 64 68 64 48 44 36 36 36 64 68 64 56 64 64 64 56 64 64 68 76 76 80 80 76 80 88 88 92 92 88 80 68 64 48 44 36 36 36 44 56 56 48 48 44 24 20 12 8 8 12 12 12 8 8 0 0 0 0 0 0 0 0 0 0 0 0 8 8 0 0 0 0 0 0 0 0 20 32 44 56
80 80 88 76 68 76 92 88 88 92 92 92 92 92 88 80 68 64 48 48 32 24 56 48 44 44 44 44 36 32 44 48 64 76 76 68 76 88 80 80 80 80 92 92 92 92 80 80 88 92 92 88 80 76 64 64 48 44 24 32 36 36 36 36 36 36 44 32 24 12 12 8 8 12 8 0 0 0 0 0 0 0 0 0 0 0 0 0 0 0 0 0 0 0 0 0 0 0 12 32 36 44 56
48 64 68 80 80 76 68 68 68 68 80 92 92 92 92 92 80 64 32 24 32 44 64 48 48 56 56 56 48 48 48 68 76 80 76 76 68 68 80 76 80 88 92 92 92 92 92 88 92 92 92 76 64 56 48 48 44 36 32 32 24 20 12 24 36 44 36 32 24 20 12 20 24 20 8 0 0 0 0 0 0 0 0 0 0 0 8 8 0 0 0 0 0 0 0 0 0 0 20 32 36 36 36
48 48 48 56 68 76 68 68 56 44 56 88 92 88 92 92 92 80 56 36 48 68 68 76 80 80 76 68 68 68 80 80 88 80 76 68 68 76 80 80 80 88 92 92 92 92 92 92 92 92 92 64 48 44 44 44 36 32 32 24 20 8 0 8 20 36 44 32 32 36 32 20 12 8 0 0 0 0 0 0 0 0 0 8 8 8 8 8 0 8 12 8 0 0 0 0 0 8 20 20 20 20 24
64 56 56 56 56 68 88 88 76 56 36 56 80 92 92 92 92 92 88 76 80 92 88 92 92 92 92 80 76 76 76 88 92 88 76 80 80 88 92 92 92 92 92 92 92 92 92 92 92 92 92 88 68 48 44 36 32 24 24 20 24 24 8 0 24 56 56 36 32 36 32 12 8 0 0 0 0 0 0 0 0 0 0 0 8 12 12 12 12 12 20 20 12 8 0 8 12 12 20 20 12 12 20
80 68 44 36 64 88 92 92 88 76 48 32 48 76 92 92 92 92 88 88 92 92 92 92 92 92 92 88 80 68 64 80 92 92 92 92 92 92 92 92 92 92 92 92 92 92 92 92 92 92 88 80 64 48 44 44 36 32 24 20 24 32 24 36 48 56 36 20 12 12 20 12 8 0 0 0 0 0 0 0 0 0 0 0 12 20 12 12 20 24 36 36 32 24 12 20 20 20 20 12 8 0 0
80 88 64 64 80 92 92 92 92 92 88 56 36 44 92 92 92 92 88 92 92 92 92 92 92 92 88 88 80 76 80 92 92 92 92 92 92 92 92 92 92 92 92 92 92 92 92 92 92 88 88 80 68 68 68 64 56 56 48 36 44 56 48 48 44 44 36 32 24 20 20 20 12 12 8 8 0 0 0 0 0 0 0 0 8 20 12 12 20 24 32 36 36 36 32 20 12 12 8 0 0 0 0
92 88 68 88 92 92 92 68 68 80 92 88 56 36 80 92 92 92 92 92 92 92 92 92 92 88 88 80 76 80 92 92 92 92 92 76 76 80 92 88 92 92 92 92 92 92 92 80 80 88 92 92 92 88 76 64 56 56 48 64 80 88 88 76 56 44 44 36 32 24 20 20 12 12 8 0 0 0 0 0 0 0 0 0 8 12 8 8 8 12 12 8 12 20 32 20 12 8 0 0 0 0 0
92 88 88 80 88 92 92 68 76 92 92 92 88 88 92 92 92 92 92 92 92 92 92 92 92 92 88 68 64 68 92 92 92 92 80 76 76 80 92 92 92 92 88 88 88 80 64 64 68 76 88 88 88 76 48 48 44 44 44 80 92 92 92 88 76 56 44 44 36 32 24 20 12 8 8 0 8 8 8 8 8 8 0 8 12 20 8 0 0 0 0 0 0 0 12 0 0 0 0 0 0 0 0
92 92 92 92 88 88 80 68 80 92 92 92 92 92 92 92 92 92 100 92 92 92 92 92 92 92 92 92 92 92 92 80 80 80 80 88 80 80 76 80 80 68 68 76 68 56 36 44 48 56 56 56 48 44 36 44 64 80 92 88 92 92 80 68 64 56 44 44 32 24 20 20 20 20 12 12 12 12 12 12 20 24 24 20 20 12 0 0 0 0 0 0 0 0 0 0 0 0 0 0 0 0 0
88 92 92 92 92 92 92 92 92 92 92 92 92 92 92 92 92 92 92 92 92 92 92 92 92 92 92 80 80 80 88 80 68 68 80 80 80 80 64 64 56 56 56 64 64 56 48 56 48 36 32 36 36 36 44 48 64 80 92 76 68 68 68 56 48 44 44 44 36 32 24 24 24 20 24 20 20 24 24 24 24 24 24 20 12 0 0 0 0 0 0 0 0 0 0 0 0 0 0 0 0 0 0
56 76 92 92 92 92 92 88 92 92 92 92 92 92 92 92 92 92 92 92 92 88 88 88 88 80 76 64 64 64 48 56 64 64 76 76 76 80 88 76 80 92 80 56 56 64 64 36 36 36 20 12 20 20 32 44 56 64 68 56 56 64 68 64 56 44 44 44 44 44 36 36 36 32 32 24 12 8 20 24 24 20 20 12 8 0 0 0 0 0 0 0 0 0 0 0 0 0 0 0 0 0 0
64 80 88 88 92 92 92 92 88 88 88 88 88 88 88 88 92 92 92 92 92 92 88 92 92 92 88 80 76 76 68 56 56 64 68 76 80 88 92 92 92 92 88 88 76 64 56 36 36 32 20 12 12 20 20 44 56 56 44 36 48 64 64 64 56 48 48 48 44 44 44 36 36 32 32 20 12 8 8 8 12 20 12 8 0 0 0 0 0 0 0 0 0 0 8 12 8 8 8 20 20 12 8
48 48 48 76 88 92 92 88 80 76 68 80 80 76 76 64 76 88 76 88 92 92 92 88 88 88 80 76 80 80 76 80 68 56 56 68 76 80 92 92 92 92 92 92 92 92 92 88 80 76 64 36 36 44 32 20 36 56 44 44 44 48 56 48 48 44 48 48 48 44 36 36 36 32 20 24 32 32 24 24 20 20 20 12 8 0 8 0 0 0 8 12 8 20 48 44 36 24 24 20 20 12 0
76 88 68 64 68 88 92 92 92 92 92 76 68 64 56 44 48 48 36 56 76 92 92 92 92 92 80 80 80 80 80 88 92 88 64 56 64 68 76 80 88 88 88 88 88 88 92 92 92 92 88 64 64 80 76 56 44 36 48 56 64 64 64 56 56 48 48 44 36 36 44 44 44 36 24 44 44 44 36 32 24 24 24 20 20 20 32 32 24 32 64 56 56 48 48 48 48 44 32 24 12 8 8
76 80 92 76 76 80 80 88 88 92 92 76 64 56 76 64 44 32 36 44 64 80 88 92 92 92 88 92 92 88 88 88 92 92 92 76 64 64 64 68 76 80 88 88 80 80 88 88 88 92 88 88 88 88 80 76 68 56 56 68 68 76 80 68 64 64 48 48 44 44 56 56 56 56 56 68 64 48 44 36 44 56 48 48 44 48 56 56 56 48 32 32 36 32 12 20 20 24 24 20 12 12 12
92 88 76 68 64 64 68 76 80 88 92 92 92 88 92 92 76 56 44 36 44 56 68 68 80 88 80 88 88 88 88 80 88 92 92 92 92 80 48 56 68 76 88 80 76 76 88 80 80 80 88 88 80 76 76 76 68 64 56 56 56 64 80 88 80 68 64 56 56 48 56 64 68 76 76 76 68 64 56 56 56 48 48 48 48 36 8 12 12 12 0 0 0 0 0 0 0 8 8 0 0 0 8
80 76 68 48 36 36 56 68 88 92 92 92 88 80 80 80 88 88 80 48 36 44 64 64 76 88 88 76 68 64 64 64 68 76 92 88 80 76 44 44 48 64 68 68 68 68 76 76 80 88 88 92 88 80 80 64 64 56 56 56 48 56 68 80 88 80 68 56 56 56 64 64 76 88 88 76 68 56 56 56 36 20 12 8 8 8 0 0 0 0 0 0 0 0 0 0 0 0 0 0 0 0 0